SCP
-0 0 0 0 0 0 0 0 0 0 0 0 0 0 0 0 0 0 1 1 1 1 1 1 1 1 1 1 1 1 1 1 1 2 2 1 1 1 1 1 1 1 1 1
0 0 0 0 0 0 0 0 0 0 0 0 0 0 0 0 0 0 1 1 1 1 1 1 1 1 1 1 1 1 1 1 1 1 1 1 1 1 1 1 1 1 1 1
0 0 0 0 0 0 0 0 0 0 0 0 0 0 0 0 0 0 0 1 0 0 0 0 1 1 1 1 1 1 1 1 1 1 1 1 1 1 1 1 1 1 1 1
0 0 0 0 0 0 0 0 0 0 0 0 0 0 0 0 0 0 0 0 0 0 0 0 0 1 1 1 1 1 1 1 1 1 1 1 1 1 1 1 0 0 0 0
0 0 0 0 0 0 0 0 0 0 0 0 0 0 0 0 0 0 0 0 0 0 0 0 0 0 1 1 1 1 1 1 1 1 1 1 1 1 1 0 0 0 0 0
0 0 0 0 0 0 0 0 0 0 0 0 0 0 0 0 0 0 0 0 0 0 0 0 0 0 0 0 1 1 1 1 1 1 1 1 1 0 0 0 0 0 0 0
0 0 0 0 0 0 0 0 0 0 0 0 0 0 0 0 0 0 0 0 0 0 0 0 0 0 0 0 0 0 0 1 1 1 1 1 0 0 0 0 0 0 0 0
0 0 0 0 0 0 0 0 0 0 0 0 0 0 0 0 0 0 0 0 0 0 0 0 0 0 0 0 0 0 0 0 0 0 0 0 0 0 0 0 0 0 0 0
0 0 0 0 0 0 0 0 0 0 0 0 0 0 0 0 0 0 0 0 0 0 0 0 0 0 0 0 0 0 0 0 0 0 0 0 0 0 0 0 0 0 0 0
0 0 0 0 0 0 0 0 0 0 0 0 0 0 0 0 0 0 0 0 0 0 0 0 0 0 0 0 0 0 0 0 0 0 0 0 0 0 0 0 0 0 0 0
0 0 0 0 0 0 0 0 0 0 0 0 0 0 0 0 0 0 0 0 0 0 0 0 0 0 0 0 0 0 0 0 0 0 0 0 0 0 0 0 0 0 0 0
0 0 0 0 0 0 0 0 0 0 0 0 0 0 0 0 0 0 0 0 0 0 0 0 0 0 0 0 0 0 0 0 0 0 0 0 0 0 0 0 0 0 0 0
0 0 0 0 0 0 0 0 0 0 0 0 0 0 0 0 0 0 0 0 0 0 0 0 0 0 0 0 0 0 0 0 0 0 0 0 0 0 0 0 0 0 0 0
0 0 0 0 0 0 0 0 0 0 0 0 0 0 0 0 0 0 0 0 0 0 0 0 0 0 0 0 0 0 0 0 0 0 0 0 0 0 0 0 0 0 0 0
0 0 0 0 0 0 0 0 0 0 0 0 0 0 0 0 0 0 0 0 0 0 0 0 0 0 0 0 0 0 0 0 0 0 0 0 0 0 0 0 0 0 0 0
0 0 0 0 0 0 0 0 0 0 0 0 0 0 0 0 0 0 0 0 0 0 0 0 0 0 0 0 0 0 0 0 0 0 0 0 0 0 0 0 0 0 0 0
0 0 0 0 0 0 0 0 0 0 0 0 0 0 0 0 0 0 0 0 0 0 0 0 0 0 0 0 0 0 0 0 0 0 0 0 0 0 0 0 0 0 0 0
0 0 0 0 0 0 0 0 0 0 0 0 0 0 0 0 0 0 0 0 0 0 0 0 0 0 0 0 0 0 0 0 0 0 0 0 0 0 0 0 0 0 0 0
0 0 0 0 0 0 0 0 0 0 0 0 0 0 0 0 0 0 0 0 0 0 0 0 0 0 0 0 0 0 0 0 0 0 0 0 0 0 0 0 0 0 0 0
0 0 0 0 0 0 0 0 0 0 0 0 0 0 0 0 0 0 0 0 0 0 0 0 0 0 0 0 0 0 0 0 0 0 0 0 0 0 0 0 0 0 0 0
0 0 0 0 0 0 0 0 0 0 0 0 0 0 0 0 0 0 0 0 0 0 0 0 0 0 0 0 0 0 0 0 0 0 0 0 0 0 0 0 0 0 0 0
0 0 0 0 0 0 0 0 0 0 0 0 0 0 0 0 0 0 0 0 0 0 0 0 0 0 0 0 0 0 0 0 0 0 0 0 0 0 0 0 0 0 0 0
0 0 0 0 0 0 0 0 0 0 0 0 0 0 0 0 0 0 0 0 0 0 0 0 0 0 0 0 0 0 0 0 0 0 0 0 0 0 0 0 0 0 0 0
0 0 0 0 0 0 0 0 0 0 0 0 0 0 0 0 0 0 0 0 0 0 0 0 0 0 0 0 0 0 0 0 0 0 0 0 0 0 0 0 0 0 0 0
0 0 0 0 0 0 0 0 0 0 0 0 0 0 0 0 0 0 0 0 0 0 0 0 0 0 0 0 0 0 0 0 0 0 0 0 0 0 0 0 0 0 0 0
0 0 0 0 0 0 0 0 0 0 0 0 0 0 0 0 0 0 0 0 0 0 0 0 0 0 0 0 0 0 0 0 0 0 0 0 0 0 0 0 0 0 0 0
Wind_Speed
5 8 4 1 3 5 4 6 5 3 1 3 3 2 1 1 1 3 4 4 5 6 7 7 6 5 4 4 3 2 3 3 3 3 4 4 4 3 3 2 2 3 3 3
8 7 1 2 3 6 7 7 6 2 1 4 4 3 2 2 3 4 4 5 6 7 7 7 7 6 5 4 3 2 1 3 3 3 3 3 3 2 2 1 2 2 1 2
8 1 1 4 6 7 7 8 6 4 3 6 6 7 6 5 5 6 6 6 8 8 7 7 7 7 6 5 3 2 2 2 3 3 4 4 4 3 2 2 2 2 2 2
6 2 4 7 6 7 7 4 6 7 9 7 9 7 7 8 6 5 5 6 7 7 7 7 7 7 7 5 4 3 3 3 3 3 4 6 4 4 3 3 3 4 4 4
5 4 7 8 6 7 7 5 8 10 11 9 9 9 5 8 6 5 5 6 6 7 8 8 8 8 7 7 6 5 5 4 4 4 5 5 5 4 4 5 5 5 5 5
8 5 6 6 4 4 4 6 8 9 9 10 8 9 5 5 5 6 6 6 6 7 8 9 9 8 8 7 7 6 6 7 6 5 6 6 7 7 7 7 6 4 4 5
7 6 4 4 6 6 7 8 6 7 8 6 3 6 2 4 3 6 7 7 6 6 7 8 8 9 9 9 8 8 8 8 7 7 7 7 8 8 8 7 6 5 5 5
6 4 3 3 5 5 6 8 8 8 6 3 4 4 5 6 6 7 8 8 7 7 7 8 8 8 8 9 9 8 8 8 8 8 8 8 8 6 6 7 7 6 5 6
5 3 3 1 3 6 6 7 7 10 9 7 3 4 6 6 7 8 9 8 7 7 8 8 8 8 8 9 9 8 9 9 10 9 10 10 9 9 9 9 8 7 6 7
5 6 2 3 5 5 7 6 5 7 7 7 4 4 4 7 7 8 7 7 7 7 7 7 7 8 8 8 9 10 10 11 10 10 9 9 10 10 9 9 10 9 9 9
4 6 4 5 5 4 5 6 7 7 7 7 4 2 5 4 7 8 8 7 7 7 7 7 7 8 8 8 9 9 10 11 11 11 11 11 10 10 10 9 9 9 9 9
2 6 5 3 1 3 5 5 6 7 6 6 6 3 5 4 7 9 10 8 7 7 7 7 8 8 8 9 9 9 9 10 11 11 11 11 10 10 10 10 9 9 9 9
3 5 6 5 6 6 4 3 5 6 6 6 6 3 6 6 8 9 10 9 8 8 8 8 8 8 8 9 9 9 10 10 10 11 11 11 10 10 10 10 9 8 9 8
4 5 6 6 3 2 2 3 4 7 6 6 4 2 6 7 8 9 9 10 9 8 8 8 8 8 8 9 9 10 10 10 10 11 11 11 10 10 10 9 9 8 8 8
5 5 4 3 3 3 4 4 4 5 6 7 3 1 4 7 8 10 10 10 10 9 9 8 8 8 9 9 9 9 9 9 9 10 11 10 10 9 9 9 8 7 7 8
4 4 4 4 4 4 4 4 3 3 4 2 1 1 6 8 9 10 10 11 10 10 9 9 9 9 9 9 9 9 9 8 9 9 10 9 9 9 9 8 8 8 8 8
5 5 5 4 3 6 5 1 2 1 1 2 2 4 8 8 9 10 10 10 10 11 11 10 10 9 9 9 8 9 9 8 9 9 8 8 8 8 8 8 8 8 8 7
5 5 4 3 4 4 5 3 0 0 1 2 4 7 8 8 7 7 9 10 11 11 11 10 10 10 9 9 8 8 8 8 8 8 8 8 8 8 8 8 7 7 6 6
5 5 4 4 5 2 6 4 2 2 1 3 6 9 9 11 9 7 7 9 10 11 10 10 10 9 10 9 8 8 7 7 7 8 8 7 7 7 7 7 6 5 5 5
5 6 6 5 6 3 5 5 1 3 3 6 7 10 11 10 6 6 9 10 11 11 10 11 10 10 9 9 8 8 7 7 8 7 7 7 6 6 6 6 5 4 4 5
7 6 7 6 5 1 6 4 4 5 5 8 8 10 10 4 5 12 13 12 12 12 12 12 11 10 9 8 8 8 8 8 7 6 6 7 6 6 6 5 4 4 4 4
5 4 4 4 5 3 5 4 1 5 7 8 9 9 9 11 14 15 14 14 14 13 13 12 10 10 9 8 8 8 8 7 6 6 7 6 6 5 5 5 4 4 3 4
3 3 3 3 5 7 3 5 5 5 8 9 10 11 13 15 15 15 14 14 13 13 12 10 11 10 9 8 8 8 7 6 6 6 6 6 6 5 5 4 4 3 2 2
4 1 2 3 6 6 6 6 6 7 9 10 12 14 15 16 16 15 14 13 13 12 11 10 11 10 9 9 8 8 7 5 5 5 5 4 5 5 5 3 3 3 3 3
4 6 4 4 8 8 7 7 9 10 12 13 13 14 15 17 16 15 13 13 12 12 10 9 9 10 10 9 8 7 6 5 5 5 4 4 5 5 4 5 5 5 7 7
6 5 4 2 10 8 10 10 12 13 14 15 15 15 15 15 16 15 13 12 12 12 11 10 10 10 9 8 7 6 5 4 4 4 3 3 4 4 3 4 6 6 5 4
Wind_Direction
203 231 230 309 288 305 286 284 285 299 322 268 246 223 196 74 89 93 80 76 74 72 56 43 43 47 67 72 88 130 165 158 161 169 170 168 169 162 156 154 152 157 171 182
217 222 234 275 257 255 256 261 268 253 174 257 236 226 181 109 86 85 82 74 67 63 55 44 42 46 55 63 64 72 127 155 169 169 167 157 140 125 119 101 94 101 137 176
252 30 129 250 242 249 253 265 283 280 249 232 228 225 195 149 126 102 86 77 67 56 48 44 44 43 47 49 41 46 58 96 137 148 144 130 125 122 112 98 78 59 91 109
244 234 243 256 257 268 269 280 277 256 248 238 228 249 192 172 159 131 100 75 64 57 51 48 49 44 37 35 38 51 62 70 88 124 138 144 150 145 136 117 92 72 70 77
237 236 257 269 284 279 298 306 269 257 258 262 233 250 190 176 185 150 115 87 70 60 55 50 47 45 40 36 39 45 62 69 76 99 116 128 125 120 105 96 86 70 59 64
264 259 270 290 289 271 273 258 249 244 243 245 234 248 209 177 195 152 123 99 78 67 62 56 49 47 43 39 39 45 54 58 63 80 94 104 112 112 104 96 90 77 67 62
234 220 202 240 252 210 233 259 252 232 227 237 190 244 74 95 127 144 136 112 85 70 66 56 48 46 44 41 41 47 55 56 58 68 76 88 99 106 106 103 96 90 82 74
266 240 166 213 273 287 257 270 278 287 283 265 187 224 89 80 96 113 118 111 95 74 65 59 49 46 44 45 45 49 58 62 64 72 77 77 83 89 91 93 93 86 81 77
285 299 125 212 270 275 261 254 294 286 277 270 211 141 123 122 119 122 120 113 95 77 67 62 56 51 48 50 51 55 63 69 68 71 78 78 77 81 88 89 87 84 83 84
283 284 241 192 224 215 282 297 265 263 273 268 228 202 168 158 150 142 137 122 105 92 78 69 61 59 55 57 60 60 64 71 71 72 75 81 82 84 86 87 87 87 85 82
258 267 241 217 247 273 228 235 262 273 282 290 282 89 49 151 155 154 139 123 112 100 89 81 74 68 65 66 67 66 67 72 73 74 76 78 80 84 86 85 83 84 85 85
236 275 275 259 80 299 278 282 276 278 281 280 290 87 62 114 137 143 133 126 116 106 98 91 84 77 72 70 71 70 70 75 77 80 80 78 79 81 82 83 83 83 81 80
188 250 257 200 179 194 232 264 277 279 284 281 283 108 98 113 122 130 131 129 123 115 105 96 89 83 80 78 78 77 76 80 82 84 84 81 78 79 80 82 81 80 80 81
244 258 284 313 349 325 265 268 276 278 280 284 296 123 140 135 133 132 131 132 127 121 113 105 98 92 90 86 85 85 84 86 88 87 86 84 81 80 81 81 80 80 83 86
242 253 256 275 286 274 281 287 284 285 299 303 329 22 140 150 148 142 139 138 134 129 122 115 109 104 101 96 92 92 91 90 92 92 91 89 89 87 87 86 83 83 85 87
229 261 242 232 226 244 259 268 272 281 292 298 279 62 106 127 136 142 147 148 144 138 131 124 117 112 108 106 105 103 98 98 98 96 95 95 93 91 90 91 90 88 84 82
206 233 251 252 221 249 241 260 263 271 356 305 314 97 130 142 152 155 154 152 147 139 135 130 124 119 115 111 111 110 109 109 106 104 104 102 98 94 93 95 93 90 89 87
223 237 261 269 247 255 78 73 27 311 54 40 82 118 139 135 131 137 147 146 143 139 136 132 127 123 119 118 115 112 111 111 107 105 102 100 98 94 93 92 92 92 93 93
237 241 266 271 272 266 136 154 185 250 118 103 122 125 123 123 118 113 130 139 136 135 133 130 128 127 123 120 118 114 109 106 104 101 99 98 96 95 94 92 95 99 101 100
203 236 257 269 289 308 97 114 132 249 166 129 141 143 145 160 160 136 136 132 127 127 127 129 130 129 125 125 125 119 114 107 102 98 96 95 92 87 83 84 90 97 102 102
198 217 245 266 275 58 90 123 200 260 82 133 150 151 155 157 90 122 130 128 128 128 129 132 132 129 126 128 126 119 112 103 98 96 94 92 89 86 83 82 81 93 102 99
236 235 234 258 268 91 106 177 293 57 104 133 138 141 129 107 112 122 126 128 130 131 135 136 132 127 127 129 126 115 106 102 101 99 96 92 88 83 89 87 81 82 98 120
248 332 337 3 44 81 79 71 75 105 126 130 131 129 125 124 127 127 127 129 131 133 134 136 133 129 127 127 124 117 114 112 109 105 97 94 90 85 83 86 91 100 100 93
153 166 181 143 120 117 110 105 105 115 125 128 129 130 131 129 129 128 129 131 133 134 134 136 135 133 129 130 127 123 123 120 116 107 103 106 107 105 95 78 73 66 55 58
137 174 187 149 128 134 133 124 119 116 120 124 126 131 131 131 132 132 133 135 134 135 137 138 136 132 130 130 127 127 126 128 118 107 104 104 103 98 97 80 52 42 55 34
170 188 222 158 158 156 138 134 130 128 127 129 128 126 130 133 134 134 134 135 137 138 140 140 137 135 133 133 132 128 128 127 126 121 111 102 108 108 107 114 115 70 59 81